www.pogodaiklimat.ru

Погода и климат >> Архив погоды >> Россия >> Ямало-Ненецкий АО >> Ныда


ПОГОДА в Ныде

  • Прогноз погоды в Ныде
  • Монитор погоды в Ныде
  • Климат города

АРХИВ ПОГОДЫ в Ныде

Время (UTC), дата Ветер
(напр.,м/с)
 
Видим.   Явления Облачность Т
(С)
Тd
(С)
f
(%)
Тe
(С)
Тes
(С)
Комфортность P
(гПа)
Po
(гПа)
Тmin
(С)
Tmax
(С)
R
(мм)
R24
(мм)
S
(см)
00 14.09 ЮВ 6
{14}
4000 м дымка {дождь} 10/10 300 м
[Sc]
+5.8 +5.2 96 +1 +1 985.6 984.7
03 14.09 В 5 4000 м слабая морось 10/10 300 м
[St]
+6.8 +6.2 96 +2 +2 985.7 984.8 +3.7 3
06 14.09 В 3 4000 м в посл. час дождь {морось} 10/10 300 м
[Sc]
+9.5 +9.1 97 +7 +7 986.9 986.0
09 14.09 ЮВ 4 20 км 8/6 300 м
[Cb cap Ac trans]
+13.0 +8.6 75 +11 +12 988.9 988.0
12 14.09 В 6 10 км 9/9 300 м
[Sc]
+9.8 +8.5 92 +6 +6 992.2 991.3
15 14.09 В 6 4000 м дымка 9/9 300 м
[Sc]
+6.8 +6.2 96 994.7 993.8 +13.3 0.4
18 14.09 В 5 10 км 10/10 300 м
[Sc]
+5.7 +4.8 94 +1 +1 996.7 995.8
21 14.09 В 5 10 км 10/10 300 м
[Sc]
+4.6 +3.4 92 -0 -0 998.8 997.9
00 15.09 В 4 10 км 10/10 300 м
[Sc Ac und Cs]
-0.4 +2.9 100 -6 -6 1000.9 1000.0
03 15.09 СВ 4 4000 м слабый дождь 10/10 300 м
[Sc]
+3.7 +2.7 93 -1 -1 1003.6 1002.7 +3.6 0.0
06 15.09 СВ 3 20 км {дождь} 9/8 600 м
[Sc Ac trans]
+5.6 +2.1 78 +2 +3 1005.5 1004.6
09 15.09 С 5 20 км 9/4 600 м
[Sc Ac trans]
+6.5 +2.5 76 +2 +3 1007.8 1006.9
12 15.09 С 5 20 км 8/3 600 м
[Sc Ac trans]
+6.7 +4.2 84 +3 +3 1009.8 1008.9
15 15.09 СВ 3 10 км 9/9 300 м
[Sc]
+5.8 +3.6 86 +2 +2 1011.4 1010.5 +6.9 0.0
18 15.09 СВ 3 10 км 4/0
[Ac trans]
+2.3 +1.0 91 -2 -2 1013.2 1012.3
21 15.09 С 2 10 км туман поземный 3/0
[Ac trans]
+3.7 +3.1 96 +1 +1 1014.2 1013.3
00 16.09 С 3 10 км туман поземный 5/3 300 м
[Sc Ac trans Ci fib]
+2.6 +2.0 96 -2 -2 1015.1 1014.2
03 16.09 штиль 0 20 км 4/0
[Ac trans]
+6.3 +3.2 81 +5 +6 1016.7 1015.8 +1.5
06 16.09 С 4 20 км 4/3 600 м
[Sc Ac trans]
+7.3 +4.9 85 +4 +5 1017.2 1016.3
09 16.09 СЗ 4 20 км 3/3 600 м
[Sc]
+7.3 +5.0 85 +4 +5 1018.2 1017.3
12 16.09 З 1 20 км 3/3 600 м
[Sc]
+6.9 +5.2 89 +6 +6 1018.9 1018.0
15 16.09 З 2 10 км 3/0
[Ci sp]
+1.8 -0.3 86 -2 -2 1019.8 1018.9 +7.6
18 16.09 ЮЗ 2 10 км ясно -0.3 -0.7 97 -4 -4 1020.4 1019.5
21 16.09 ЮЗ 2 10 км ясно -1.3 -1.5 99 -5 -5 1020.8 1019.9
00 17.09 ЮЗ 1 10 км туман поземный 3/3
[Sc]
-2.0 -2.1 99 -4 -4 1021.2 1020.3
03 17.09 ЮЗ 1 10 км 6/4 600 м
[Cb cap Ci sp]
+4.9 +4.4 97 +3 +4 1021.5 1020.6 -2.6
06 17.09 ЮЗ 4 10 км 8/6 300 м
[Sc Ac trans]
+8.8 +3.5 69 +6 +7 1021.2 1020.3
09 17.09 ЮЗ 5 20 км 8/5 600 м
[Cu Sc Ci fib]
+10.6 -0.5 46 +8 +9 1020.8 1019.9
12 17.09 Ю 3 20 км 8/3 300 м
[Sc Ci sp]
+9.3 +1.9 60 +7 +7 1019.7 1018.8
15 17.09 Ю 3 10 км 9/5 300 м
[Sc Ci sp]
+3.0 +0.7 85 -1 -1 1018.9 1018.0 +10.8
18 17.09 Ю 5 10 км 5/5 300 м
[Sc]
+2.9 +0.6 85 -2 -2 1017.5 1016.6
21 17.09 ЮВ 5 10 км 3/3 600 м
[Sc]
+2.8 +0.7 86 -3 -3 1015.1 1014.2
00 18.09 ЮВ 7 10 км 8/8 300 м
[Sc]
+4.2 +1.5 83 -2 -2 1012.0 1011.1
03 18.09 ЮВ 8-10
{11}
10 км в посл. час ливневой дождь 9/9 300 м
[Cb cap]
+5.2 +2.6 83 -1 -1 1009.2 1008.3 +2.6 0.0
06 18.09 ЮВ 11-16
{16}
10 км в посл. час ливневой дождь 9/9 600 м
[Cb cap]
+9.1 +4.0 70 +4 +4 1005.3 1004.4
09 18.09 Ю 11-15
{17}
10 км в посл. час ливневой дождь 10/10 300 м
[Cb cap]
+8.5 +6.9 90 +3 +3 1003.7 1002.8
12 18.09 ЮЗ 10-14
{19}
20 км {ливн. осадки} 5/5 300 м
[Cb cap]
+9.8 +5.4 74 +5 +5 1005.7 1004.8
15 18.09 ЮЗ 5
{15}
10 км 5/3 300 м
[Sc Ci fib]
+7.2 +3.3 76 +3 +3 1008.9 1008.0 +10.0 1
18 18.09 Ю 3
{15}
10 км 8/0
[Ci fib]
+4.8 +3.5 91 +1 +1 1010.5 1009.6
21 18.09 Ю 3 10 км 9/0
[Ac trans Ci fib]
+4.9 +3.8 93 +1 +1 1010.9 1010.0
00 19.09 Ю 4 10 км 9/3 300 м
[Sc Ac trans Ci fib]
+3.4 +2.8 96 -1 -1 1011.5 1010.6
03 19.09 Ю 4 10 км 9/3 300 м
[Sc Ci sp]
+5.4 +4.2 92 +1 +2 1012.3 1011.4 +3.2
06 19.09 Ю 5 50 км 8/0
[Ci sp]
+11.3 +5.0 65 +9 +10 1011.8 1010.9
09 19.09 ЮВ 6 50 км 8/3 600 м
[Sc Ac trans Ci sp]
+11.0 +5.8 70 +8 +9 1010.7 1009.8
12 19.09 ЮВ 6
{10}
4000 м слабый дождь 10/10 300 м
[Sc]
+10.1 +8.1 87 +7 +7 1010.0 1009.1
15 19.09 ЮВ 5
{11}
4000 м слабый дождь 10/10 300 м
[Sc]
+9.4 +8.7 95 +6 +6 1008.7 1007.8 +12.2 3
18 19.09 Ю 5
{11}
10 км {дождь} 10/10 300 м
[Sc]
+10.6 +9.7 94 +8 +8 1008.1 1007.2
21 19.09 Ю 5 10 км 10/10 300 м
[Sc]
+10.9 +9.7 92 1007.3 1006.4
00 20.09 Ю 4 10 км {ливн. осадки} 9/6 300 м
[Cb cap Ac trans]
+9.2 +8.1 93 +6 +6 1006.8 1005.9
03 20.09 Ю 7 10 км 8/6 300 м
[Sc Ac trans]
+8.6 +6.7 88 +4 +4 1007.3 1006.4 +7.8 0.0
06 20.09 Ю 7
{10}
10 км 5/0
[Ac trans Ci fib]
+12.9 +6.7 66 +10 +11 1007.2 1006.3
09 20.09 Ю 7-10
{11}
10 км 6/3 600 м
[Sc Ac trans Ci fib]
+15.2 +6.0 54 +14 +14 1006.9 1006.0
12 20.09 Ю 4
{11}
10 км 8/3 600 м
[Sc Ac trans Ci fib]
+13.7 +7.0 64 +12 +12 1007.8 1006.9
15 20.09 Ю 3 10 км 9/8 600 м
[Sc Ac trans]
+10.1 +6.3 77 +8 +8 1008.4 1007.5 +15.4
18 20.09 Ю 2 10 км 9/9 300 м
[Sc]
+9.4 +5.6 77 +8 +8 1008.4 1007.5

 

Местоположение метеостанции Ныда (Ямало-Ненецкий АО, Россия): широта 66.63 долгота 72.93 высота над уровнем моря 7 м.

В архиве по умолчанию представлена погода в Ныде за последнюю неделю. Архивные данные за месяц целиком и за предыдущие месяцы, начиная с января 2011 года, Вы можете получить, выбрав интересующий диапазон дат из раскрывающегося списка и нажав кнопку "Ввод!".


*Определитесь, кто Вы:
робот инопланетянин человек

Внимание! Время в таблицах - всемирное. Для получения местного времени необходимо прибавить поправку, которая в Ныде равна 5 ч.

Смотрите также архив погоды в соседних городах и на ближайших метеорологических станциях:

Погода в Пангодах (Ямало-Ненецкий АО, Россия) (113 км)
Погода в Новом Порте (Ямало-Ненецкий АО, Россия) (117 км)
Погода в Надыме (Ямало-Ненецкий АО, Россия) (130 км)
Погода в Новом Уренгое (Ямало-Ненецкий АО, Россия) (181 км)
Погода в Полуе (Ямало-Ненецкий АО, Россия) (201 км)
Погода в Белоярске (Ямало-Ненецкий АО, Россия) (212 км)
Погода в Лонг-Югане (Ямало-Ненецкий АО, Россия) (226 км)
Погода в Уренгое (Ямало-Ненецкий АО, Россия) (256 км)
Погода в Тазовском (Ямало-Ненецкий АО, Россия) (268 км)
Погода в Салехарде (Ямало-Ненецкий АО, Россия) (277 км)

Пояснения к столбцам:

Ветер - указаны скорость ветра в м/с - средняя за 10 мин, порывы в срок и между сроками (в фигурных скобках) и направление, откуда дует ветер: С - северный, СВ - северо-восточный, В - восточный, ЮВ - юго-восточный, Ю - южный, ЮЗ - юго-западный, З - западный, СЗ - северо-западный.
Видимость - горизонтальная дальность видимости в метрах или километрах. При видимости от 1 до 10 км при отсутствии осадков обычно наблюдается дымка, при ухудшении видимости до 1 км и менее - туман. В сухую погоду видимость может ухудшаться дымом, пылью или мглою.
Явления - указаны атмосферные явления, наблюдавшиеся в срок или в последний час перед сроком; фигурными скобками обозначены явления, наблюдавшиеся между сроками (за 1-3 часа до срока); квадратными скобками обозначены град или гололедные отложения с указанием их диаметра в мм.
Облачность - указаны через наклонную черту общая и нижняя облачность в баллах и высота нижней границы облаков в метрах; квадратными скобками обозначены формы облаков: Ci - перистые, Cs - перисто-слоистые, Cc - перисто-кучевые, Ac - высококучевые, As - высокослоистые, Sc - слоисто-кучевые, Ns - слоисто-дождевые, Cu - кучевые, Cb - кучево-дождевые. Подробнее классификацию облаков см. в Атласе облаков (PDF).
T - Температура воздуха - температура, измеренная на высоте 2 м над землей.
Td - Температура точки росы - температура, при понижении до которой содержащийся в воздухе водяной пар достигнет насыщения.
f - Относительная влажность воздуха - влажноcть воздуха, измеренная на высоте 2 м над землей.
Te - Эффективная температура - температура, которую ощущает одетый по сезону человек в тени. Характеристика душности погоды. При расчете учитывается влияние влажности воздуха и скорости ветра на теплоощущения человека.
Tes - Эффективная температура на солнце - температура, которую ощущает человек, с поправкой на солнечный нагрев. Характеристика знойности погоды. Зависит от высоты солнца над горизонтом, облачности и скорости ветра. Ночью, в пасмурную погоду, а также при ветре 12 м/с и более поправка равна нулю.
P - Атмосферное давление - приведенное к уровню моря атмосферное давление.
Po - Атмосферное давление - измеренное на уровне метеостанции атмосферное давление.
Tmin - Минимальная температура - минимум температуры воздуха на высоте 2 м над землей.
Tmax - Максимальная температура - максимум температуры воздуха на высоте 2 м над землей.
R - Количество осадков - Количество выпавших осадков за период времени, мм. При наведении курсора мыши на число - период времени, за который выпало указанное количество осадков.
R24 - Количество осадков - Количество выпавших осадков за 24 часа, мм.
S - Снежный покров - Высота снежного покрова, см. При наведении курсора мыши на число - состояние снежного покрова и степень покрытия местности в баллах.